This demonstration page uses our WeatherBlox Daily Observations layout. Learn more.

Hourly Observations for April 8, 2018

Temp ( °F °C ) Dew Point ( °F °C ) Humidity (%) Winds ( mph kmh ) Pressure ( in mb ) Visibility ( mi km ) Precip ( " mm )
12:15 am 00:15 Mostly Cloudy 32 -0.2 15 -9.2 51 51 SSE 13 20 30 1016 10 16.0934 0 0
12:35 am 00:35 Cloudy 32 0 16 -9.1 51 51 SSE 14 22 30 1016 10 16.0934 0 0
12:55 am 00:55 Cloudy 32 0.1 16 -8.9 51 51 SSE 15 24 29.97 1015 10 16.0934 0 0
1:15 am 01:15 Cloudy 33 0.5 16 -9.1 49 49 S 15 24 29.94 1014 10 16.0934 0 0
1:35 am 01:35 Cloudy 33 0.5 16 -9 49 49 SSE 18 30 29.94 1014 10 16.0934 0 0
1:55 am 01:55 Cloudy 33 0.6 16 -8.7 50 50 SSE 17 28 29.94 1014 10 16.0934 0 0
2:15 am 02:15 Cloudy 33 0.7 17 -8.2 52 52 S 17 28 29.91 1013 10 16.0934 0 0
2:35 am 02:35 Cloudy 33 0.7 18 -8 53 53 S 22 35 29.91 1013 10 16.0934 0 0
2:55 am 02:55 Cloudy 33 0.5 17 -8.1 53 53 SSE 18 30 29.91 1013 10 16.0934 0 0
3:15 am 03:15 Cloudy 33 0.4 18 -7.9 54 54 SSE 15 24 29.88 1012 10 16.0934 0 0
3:35 am 03:35 Mostly Cloudy 32 0.2 18 -8 54 54 SSE 18 30 29.88 1012 10 16.0934 0 0
3:55 am 03:55 Partly Cloudy 32 0.2 18 -8 54 54 SSE 17 28 29.88 1012 10 16.0934 0 0
4:15 am 04:15 Clear 32 0.2 18 -8 54 54 SSE 18 30 29.88 1012 10 16.0934 0 0
4:35 am 04:35 Clear 33 0.3 18 -7.8 55 55 SSE 18 30 29.88 1012 10 16.0934 0 0
4:55 am 04:55 Clear 33 0.5 18 -7.6 55 55 SSE 18 30 29.83 1010 10 16.0934 0 0
5:15 am 05:15 Clear 33 0.5 18 -7.7 55 55 SSE 20 31 29.8 1009 10 16.0934 0 0
5:35 am 05:35 Clear 33 0.5 18 -7.8 54 54 S 24 39 29.8 1009 10 16.0934 0 0
5:55 am 05:55 Clear 33 0.8 19 -7.5 54 54 S 24 39 29.77 1008 10 16.0934 0 0
6:15 am 06:15 Clear 34 0.9 19 -7.2 55 55 S 25 41 29.77 1008 10 16.0934 0 0
6:35 am 06:35 Clear 34 1 20 -6.9 56 56 S 22 35 29.77 1008 10 16.0934 0 0
6:55 am 06:55 Clear 34 1 20 -6.6 57 57 S 23 37 29.77 1008 10 16.0934 0 0
7:15 am 07:15 Mostly Cloudy 34 1 21 -6.3 59 59 S 23 37 29.77 1008 10 16.0934 0 0
7:35 am 07:35 Cloudy 34 1 21 -6.1 59 59 SSE 23 37 29.74 1007 10 16.0934 0 0
7:55 am 07:55 Mostly Cloudy 34 1 22 -5.8 61 61 S 21 33 29.74 1007 10 16.0934 0 0
8:15 am 08:15 Partly Cloudy 34 1.1 22 -5.5 62 62 S 23 37 29.74 1007 10 16.0934 0 0
8:35 am 08:35 Sunny 35 1.4 23 -5.1 62 62 S 30 48 29.77 1008 10 16.0934 0 0
8:55 am 08:55 Mostly Cloudy 35 1.5 23 -5 62 62 S 28 44 29.74 1007 10 16.0934 0 0
9:15 am 09:15 Mostly Cloudy 35 1.5 23 -4.9 63 63 S 29 46 29.74 1007 10 16.0934 0 0
9:35 am 09:35 Cloudy 35 1.6 24 -4.7 63 63 S 26 43 29.74 1007 10 16.0934 0 0
9:55 am 09:55 Cloudy 36 2 24 -4.2 64 64 S 26 43 29.71 1006 10 16.0934 0 0
10:15 am 10:15 Cloudy 36 2.2 25 -4.1 63 63 S 24 39 29.71 1006 10 16.0934 0 0
10:35 am 10:35 Mostly Cloudy 37 3 24 -4.2 60 60 S 24 39 29.68 1005 10 16.0934 0 0
10:55 am 10:55 Partly Cloudy 38 3.5 25 -3.9 59 59 S 23 37 29.71 1006 10 16.0934 0 0
11:15 am 11:15 Partly Cloudy 38 3.6 26 -3.5 60 60 SSW 16 26 29.68 1005 10 16.0934 0 0
11:35 am 11:35 Partly Cloudy 39 4 26 -3.1 60 60 S 17 28 29.68 1005 10 16.0934 0 0
11:55 am 11:55 Sunny 40 4.7 28 -2.5 60 60 S 13 20 29.68 1005 10 16.0934 0 0
12:15 pm 12:15 Sunny 41 5.2 28 -2 60 60 SSW 15 24 29.71 1006 10 16.0934 0 0
12:35 pm 12:35 Sunny 42 5.8 29 -1.5 60 60 SSW 13 20 29.71 1006 10 16.0934 0 0
12:55 pm 12:55 Sunny 45 7 31 -0.6 59 59 SW 8 13 29.68 1005 10 16.0934 0 0
1:15 pm 13:15 Sunny 46 7.9 31 -0.3 57 57 W 5 7 29.68 1005 10 16.0934 0 0
1:35 pm 13:35 Sunny 48 9 32 -0.2 53 53 W 6 9 29.68 1005 10 16.0934 0 0
1:55 pm 13:55 Sunny 52 11.1 33 0.3 48 48 NNW 10 17 29.65 1004 10 16.0934 0 0
2:15 pm 14:15 Sunny 54 12.1 33 0.3 45 45 NW 12 19 29.62 1003 10 16.0934 0 0
2:35 pm 14:35 Sunny 56 13.2 33 0.8 43 43 N 9 15 29.59 1002 10 16.0934 0 0
2:55 pm 14:55 Sunny 57 14 34 1 41 41 NNW 12 19 29.59 1002 10 16.0934 0 0
3:15 pm 15:15 Sunny 58 14.4 34 1.2 41 41 N 12 19 29.59 1002 10 16.0934 0 0
3:35 pm 15:35 Sunny 60 15.6 35 1.8 40 40 NW 10 17 29.59 1002 10 16.0934 0 0
3:55 pm 15:55 Sunny 61 16.1 35 1.7 38 38 WNW 12 19 29.56 1001 10 16.0934 0 0
4:15 pm 16:15 Sunny 62 16.5 36 2 38 38 N 9 15 29.56 1001 10 16.0934 0 0
4:35 pm 16:35 Partly Cloudy 63 17 35 1.9 36 36 N 8 13 29.59 1002 10 16.0934 0 0
4:55 pm 16:55 Mostly Cloudy 62 16.9 33 0.5 33 33 NNW 21 33 29.59 1002 10 16.0934 0 0
5:15 pm 17:15 Partly Cloudy 63 17.4 31 -0.8 29 29 NNW 21 33 29.59 1002 10 16.0934 0 0
5:35 pm 17:35 Sunny 63 17 31 -0.6 30 30 N 21 33 29.62 1003 10 16.0934 0 0
5:55 pm 17:55 Sunny 62 16.5 30 -0.9 31 31 N 18 30 29.62 1003 10 16.0934 0 0
6:15 pm 18:15 Sunny 62 16.5 30 -1.1 30 30 N 17 28 29.62 1003 10 16.0934 0 0
6:35 pm 18:35 Sunny 61 16 31 -0.6 32 32 N 18 30 29.65 1004 10 16.0934 0 0
6:55 pm 18:55 Sunny 58 14.6 32 0.1 37 37 N 21 33 29.68 1005 10 16.0934 0 0
7:15 pm 19:15 Sunny 56 13.1 32 0 41 41 N 22 35 29.74 1007 10 16.0934 0 0
7:35 pm 19:35 Sunny 53 11.9 31 -0.8 42 42 N 21 33 29.74 1007 10 16.0934 0 0
7:55 pm 19:55 Sunny 51 10.8 30 -1.1 44 44 N 15 24 29.77 1008 10 16.0934 0 0
8:15 pm 20:15 Clear 50 9.8 30 -1.3 46 46 N 13 20 29.8 1009 10 16.0934 0 0
8:35 pm 20:35 Clear 47 8.5 30 -1.2 51 51 N 12 19 29.8 1009 10 16.0934 0 0
8:55 pm 20:55 Clear 46 7.5 29 -1.7 52 52 N 12 19 29.8 1009 10 16.0934 0 0
9:15 pm 21:15 Clear 42 5.6 29 -1.7 60 60 N 12 19 29.83 1010 10 16.0934 0 0
9:35 pm 21:35 Clear 42 5.4 29 -1.5 61 61 NNE 17 28 29.85 1011 10 16.0934 0 0
9:55 pm 21:55 Clear 40 4.4 29 -1.6 65 65 NNE 14 22 29.85 1011 10 16.0934 0 0
10:15 pm 22:15 Clear 39 3.7 28 -2 67 67 NNE 15 24 29.91 1013 10 16.0934 0 0
10:35 pm 22:35 Partly Cloudy 38 3.1 28 -2.3 68 68 N 13 20 29.94 1014 10 16.0934 0 0
10:55 pm 22:55 Partly Cloudy 36 2.2 28 -2.5 71 71 N 14 22 29.94 1014 10 16.0934 0 0
11:15 pm 23:15 Partly Cloudy 36 2 28 -2.5 72 72 N 14 22 29.94 1014 10 16.0934 0 0
11:35 pm 23:35 Cloudy 36 2 28 -2.5 72 72 N 15 24 29.97 1015 10 16.0934 0 0
11:55 pm 23:55 Cloudy 35 1.6 27 -2.7 73 73 N 16 26 30 1016 10 16.0934 0 0

Powered by AerisWeather